This demonstration page uses our WeatherBlox Daily Observations layout. Learn more.

Left ArrowRight Arrow

39.12711, -84.51439

Hourly Observations for June 15, 2016

Temp ( °F °C ) Dew Point ( °F °C ) Humidity (%) Winds ( mph kmh ) Pressure ( in mb ) Visibility ( mi km ) Precip ( " mm )
12:53 am 00:53 Clear 69 20.6 67 19.4 93 93 N N/A 29.89 1012 10 16 N/A
1:53 am 01:53 Clear 68 20 68 20 100 100 SSW 3 6 29.88 1012 10 16 N/A
2:53 am 02:53 Clear 69 20.6 68 20 96 96 N N/A 29.87 1011 10 16 N/A
3:53 am 03:53 Clear 67 19.4 67 19.4 100 100 N N/A 29.87 1012 8 13 N/A
4:53 am 04:53 Clear 67 19.4 66 18.9 97 97 N N/A 29.87 1012 8 13 N/A
5:53 am 05:53 Cloudy 67 19.4 67 19.4 100 100 N N/A 29.87 1011 10 16 N/A
6:53 am 06:53 Mostly Sunny 67 19.4 67 19.4 100 100 N N/A 29.88 1012 10 16 N/A
7:53 am 07:53 Mostly Sunny 70 21.1 69 20.6 97 97 N N/A 29.88 1012 10 16 N/A
8:53 am 08:53 Mostly Cloudy 74 23.3 70 21.1 88 88 S 6 9 29.88 1012 10 16 N/A
9:44 am 09:44 Mostly Cloudy 75 24 72 22 89 89 W 13 20 29.91 1013 10 16 N/A
9:53 am 09:53 Mostly Cloudy 75 23.9 71 21.7 88 88 WSW 9 15 29.89 1012 10 16 N/A
10:53 am 10:53 Cloudy with Light Rain 73 22.8 72 22.2 96 96 SW 6 9 29.89 1012 9 14 0.05 1.27
11:10 am 11:10 Mostly Cloudy 73 23 72 22 94 94 SSW 7 11 29.91 1013 10 16 N/A
11:36 am 11:36 Mostly Sunny 73 23 72 22 94 94 N N/A 29.91 1013 10 16 N/A
11:53 am 11:53 Mostly Sunny 76 24.4 72 22.2 88 88 VRB 5 7 29.87 1012 10 16 N/A
12:53 pm 12:53 Sunny 81 27.2 74 23.3 79 79 SSW 6 9 29.86 1011 10 16 N/A
1:53 pm 13:53 Mostly Cloudy 84 28.9 74 23.3 72 72 S 10 17 29.83 1010 10 16 N/A
2:53 pm 14:53 Mostly Cloudy 84 28.9 74 23.3 72 72 SW 14 22 29.81 1010 10 16 N/A
3:53 pm 15:53 Mostly Cloudy 85 29.4 75 23.9 72 72 SSW 10 17 29.80 1009 9 14 N/A
4:53 pm 16:53 Mostly Cloudy 86 30 75 23.9 70 70 S 13 20 29.77 1008 10 16 N/A
5:53 pm 17:53 Mostly Cloudy 85 29.4 74 23.3 70 70 SSW 13 20 29.77 1008 10 16 N/A
6:53 pm 18:53 Mostly Sunny 84 28.9 74 23.3 72 72 SW 10 17 29.77 1008 10 16 N/A
7:05 pm 19:05 Partly Cloudy with Nearby Thunderstorms 83 28.3 75 23.9 77 77 SW 10 17 29.80 1009 10 16 N/A
7:20 pm 19:20 Mostly Cloudy with Thunderstorms 84 29 75 24 74 74 W 18 30 29.83 1010 10 16 N/A
7:26 pm 19:26 Mostly Cloudy with Thunderstorms 77 25 66 19 69 69 WNW 22 35 29.85 1011 10 16 N/A
7:33 pm 19:33 Mostly Cloudy with Strong Thunderstorms 71 21.7 67 19.4 87 87 NW 26 43 29.91 1013 2 3 0.14 3.56
7:41 pm 19:41 Cloudy with Strong Thunderstorms 70 21.1 68 20 93 93 NW 15 24 29.88 1012 3 4 0.20 5.08
7:46 pm 19:46 Cloudy with Thunderstorms 70 21 68 20 94 94 NNW 10 17 29.88 1012 3 5 N/A
7:53 pm 19:53 Cloudy with Thunderstorms 70 21 N/A N/A NNW 13 20 29.85 1011 4 6 0.25 6.35
8:13 pm 20:13 Mostly Cloudy with Nearby Thunderstorms 70 21.1 68 20 93 93 N N/A 29.88 1012 9 14 0.02 0.51
8:29 pm 20:29 Mostly Cloudy with Rain 70 21.1 68 20 93 93 SE 3 6 29.88 1012 5 8 0.06 1.52
8:53 pm 20:53 Partly Cloudy with Light Rain 70 21.1 68 20 93 93 SSE 6 9 29.83 1010 10 16 0.08 2.03
9:01 pm 21:01 Partly Cloudy with Nearby Thunderstorms 69 20.6 68 20 96 96 SSE 9 15 29.83 1010 10 16 N/A
9:16 pm 21:16 Clear 69 20.6 68 20 96 96 SSW 7 11 29.83 1010 10 16 N/A
9:53 pm 21:53 Mostly Cloudy 69 20.6 68 20 96 96 S 3 6 29.83 1010 10 16 N/A
10:53 pm 22:53 Clear 68 20 66 18.9 93 93 SW 3 6 29.82 1010 10 16 N/A
11:53 pm 23:53 Clear 66 19 N/A N/A ENE 5 7 29.81 1010 10 16 N/A

Powered by AerisWeather